Stations météo

réclame
Mon MeteoGroup
Amsterdam Airport, Pays-Bas (6240): Température de l'air & dewpoint: 05.12.2018 08:00:00 - 11.12.2018 08:00:00 (CET)Amsterdam Airport, Pays-Bas (6240): Température de l'air 5cm: 05.12.2018 08:00:00 - 11.12.2018 08:00:00 (CET)Amsterdam Airport, Pays-Bas (6240): Vitesse du vent & gusts: 05.12.2018 08:00:00 - 11.12.2018 08:00:00 (CET)Amsterdam Airport, Pays-Bas (6240): Direction du vent: 05.12.2018 08:00:00 - 11.12.2018 08:00:00 (CET)Amsterdam Airport, Pays-Bas (6240): reduced air pressure: 05.12.2018 08:00:00 - 11.12.2018 08:00:00 (CET)Amsterdam Airport, Pays-Bas (6240): visibility: 05.12.2018 08:00:00 - 11.12.2018 08:00:00 (CET)Amsterdam Airport, Pays-Bas (6240): Quantités de précipitations: 05.12.2018 08:00:00 - 11.12.2018 08:00:00 (CET)
Date & Time tt [°C] td [°C] tt 5cm [°C] ff [km/h] ff [knt] fx [km/h] fx [knt] dd ppp [hPa] vv [km] rr [mm]
11.12.2018 08:00:00 4,0 2,0 2,4 11 6 - - W 1024,1 10 -
11.12.2018 07:00:00 5,3 3,2 4,1 15 8 25 14 N 1024,0 10 0,3
11.12.2018 06:00:00 5,5 2,9 4,3 16 9 32 18 NNW 1024,1 10 0,1
11.12.2018 05:00:00 5,6 1,9 2,2 13 7 29 16 NW 1023,8 10 0,0
11.12.2018 04:00:00 4,5 2,0 3,1 13 7 18 10 NW 1024,0 10 0,0
11.12.2018 03:00:00 4,8 1,7 2,7 16 9 25 14 WNW 1023,8 10 0,0
11.12.2018 02:00:00 5,0 1,8 3,1 15 8 29 16 NW 1023,9 10 0,0
11.12.2018 01:00:00 5,2 2,4 3,0 18 10 36 19 WNW 1024,2 10 0,0
11.12.2018 00:00:00 5,5 2,4 3,5 18 10 32 18 NW 1024,0 10 0,0
10.12.2018 23:00:00 4,6 2,3 3,0 13 7 32 18 WNW 1023,9 10 0,0
10.12.2018 22:00:00 5,7 2,4 3,8 22 12 40 21 NW 1023,9 10 0,0
10.12.2018 21:00:00 5,5 3,1 4,7 22 12 36 19 NNW 1023,8 9 0,1
10.12.2018 20:00:00 6,0 2,0 3,9 22 12 36 19 NW 1023,4 10 0,0
10.12.2018 19:00:00 5,5 1,8 3,5 21 11 36 19 NW 1023,5 10 0,4
10.12.2018 18:00:00 6,2 2,4 4,6 31 17 47 25 NW 1023,2 10 0,0
10.12.2018 17:00:00 6,3 2,1 4,6 21 11 40 21 NW 1023,0 10 0,0
10.12.2018 16:00:00 5,7 2,8 4,7 28 15 58 31 NW 1022,8 10 0,3
10.12.2018 15:00:00 7,2 1,1 5,7 29 16 54 29 NW 1022,0 10 0,0
10.12.2018 14:00:00 7,1 1,5 6,0 37 20 50 27 NW 1021,8 10 0,0
10.12.2018 13:00:00 7,3 2,7 6,5 28 15 47 25 NW 1021,7 10 0,0
10.12.2018 12:00:00 7,2 3,1 6,2 24 13 50 27 NW 1021,4 10 0,1
10.12.2018 11:00:00 6,1 3,6 5,5 15 8 50 27 WNW 1021,6 10 0,8
10.12.2018 10:00:00 6,1 3,4 5,1 29 16 61 33 WNW 1020,9 10 0,6
10.12.2018 09:00:00 6,1 2,4 4,5 28 15 43 23 NW 1020,4 10 0,0
10.12.2018 08:00:00 5,1 1,6 3,3 22 12 32 18 NW 1019,6 10 0,0
10.12.2018 07:00:00 5,9 2,8 3,9 18 10 36 19 WNW 1019,5 10 0,0
10.12.2018 06:00:00 3,8 2,5 2,0 9 5 32 18 WNW 1019,2 10 0,0
10.12.2018 05:00:00 5,4 2,3 3,4 16 9 58 31 NW 1018,7 10 0,0
10.12.2018 04:00:00 6,3 2,9 4,4 26 14 43 23 WNW 1017,7 9 0,0
10.12.2018 03:00:00 5,8 2,6 4,4 31 17 58 31 NW 1017,6 7 0,1
10.12.2018 02:00:00 5,8 3,1 3,7 21 11 47 25 WNW 1016,9 10 0,3
10.12.2018 01:00:00 6,5 3,0 4,8 26 14 43 23 WNW 1016,4 10 0,0
10.12.2018 00:00:00 6,1 2,2 4,1 26 14 72 39 NW 1015,6 10 0,1
09.12.2018 23:00:00 7,2 3,0 5,6 31 17 54 29 NW 1014,7 10 0,0
09.12.2018 22:00:00 6,7 3,1 5,5 26 14 47 25 WNW 1013,6 10 0,0
09.12.2018 21:00:00 6,6 2,9 5,0 26 14 54 29 WNW 1012,5 10 0,1
09.12.2018 20:00:00 6,6 3,3 4,9 21 11 61 33 WNW 1011,5 10 0,1
09.12.2018 19:00:00 7,5 3,9 5,6 24 13 40 21 NW 1010,6 10 0,0
09.12.2018 18:00:00 7,8 3,9 6,4 26 14 43 23 NW 1008,6 10 0,0
09.12.2018 17:00:00 7,5 4,8 6,0 26 14 54 29 NW 1007,0 10 0,4
09.12.2018 16:00:00 7,6 5,5 7,0 34 18 61 33 WNW 1005,5 6 0,8
09.12.2018 15:00:00 8,9 5,9 7,7 34 18 65 35 NW 1003,4 10 0,0
09.12.2018 14:00:00 9,0 6,3 8,0 31 17 61 33 NW 1002,0 10 0,3
09.12.2018 13:00:00 10,1 6,6 8,4 31 17 50 27 WNW 1000,6 10 0,0
09.12.2018 12:00:00 8,8 5,9 7,9 29 16 47 25 NW 999,5 10 0,2
09.12.2018 11:00:00 7,9 6,1 7,2 26 14 47 25 WNW 998,5 9 1,0
09.12.2018 10:00:00 8,4 6,6 7,6 22 12 43 23 W 997,4 10 0,4
09.12.2018 09:00:00 7,6 6,4 7,1 34 18 58 31 WNW 996,5 4,5 1,5
09.12.2018 08:00:00 9,1 6,6 8,0 41 22 61 33 W 995,1 10 0,2
09.12.2018 07:00:00 8,9 6,6 7,9 44 24 68 37 W 994,2 9 0,4
09.12.2018 06:00:00 9,2 6,6 8,1 46 25 72 39 W 993,4 8 0,0
09.12.2018 05:00:00 9,5 6,4 8,1 46 25 68 37 W 992,9 10 0,0
09.12.2018 04:00:00 9,5 6,2 8,0 48 26 65 35 W 992,7 10 0,3
09.12.2018 03:00:00 8,9 6,9 8,0 42 23 72 39 W 992,7 6 0,6
09.12.2018 02:00:00 9,4 6,4 8,2 44 24 68 37 W 992,2 10 0,1
09.12.2018 01:00:00 9,9 6,0 8,5 50 27 72 39 W 991,9 10 0,0
09.12.2018 00:00:00 9,3 6,8 8,2 50 27 72 39 W 991,5 10 0,5
08.12.2018 23:00:00 9,4 7,0 7,9 42 23 58 31 W 991,3 10 1,3
08.12.2018 22:00:00 8,8 6,5 8,5 46 25 72 39 WSW 991,8 10 0,1
08.12.2018 21:00:00 11,2 8,8 9,9 41 22 65 35 SW 992,0 10 0,0
08.12.2018 20:00:00 11,4 9,4 10,1 41 22 58 31 SW 992,8 10 0,0
08.12.2018 19:00:00 10,8 9,6 9,6 35 19 47 25 SW 994,4 10 1,6
08.12.2018 18:00:00 10,3 7,6 8,9 37 20 61 33 SW 996,5 10 0,0
08.12.2018 17:00:00 10,3 6,5 8,7 34 18 54 29 WSW 998,4 10 0,0
08.12.2018 16:00:00 10,1 5,4 8,2 44 24 65 35 WSW 999,4 10 0,0
08.12.2018 15:00:00 10,2 5,6 9,1 39 21 65 35 WSW 999,9 10 0,0
08.12.2018 14:00:00 10,6 5,6 9,4 44 24 68 37 WSW 1000,2 10 0,0
08.12.2018 13:00:00 10,4 5,8 9,4 50 27 68 37 WSW 999,9 10 0,0
08.12.2018 12:00:00 10,4 5,8 9,1 48 26 68 37 W 1000,1 10 0,0
08.12.2018 11:00:00 10,4 5,8 9,0 42 23 68 37 W 999,7 10 0,0
08.12.2018 10:00:00 10,0 6,0 8,4 44 24 76 41 WSW 999,2 10 0,0
08.12.2018 09:00:00 9,7 6,0 8,0 42 23 68 37 WSW 998,9 10 0,6
08.12.2018 08:00:00 9,2 6,5 7,8 37 20 72 39 WSW 998,8 10 0,4
08.12.2018 07:00:00 9,5 5,9 7,9 42 23 65 35 WSW 998,9 10 0,0
08.12.2018 06:00:00 9,0 6,2 7,6 42 23 61 33 WSW 999,5 8 0,4
08.12.2018 05:00:00 8,7 5,9 7,4 41 22 58 31 WSW 999,9 9 0,4
08.12.2018 04:00:00 8,3 6,1 7,1 39 21 58 31 SW 1000,6 6 0,7
08.12.2018 03:00:00 8,8 4,6 7,1 39 21 61 33 WSW 1001,2 10 0,1
08.12.2018 02:00:00 8,6 4,1 6,7 37 20 58 31 WSW 1001,8 10 0,0
08.12.2018 01:00:00 8,1 2,9 5,9 35 19 54 29 WSW 1001,9 10 0,0
08.12.2018 00:00:00 7,9 3,0 5,7 41 22 61 33 W 1001,9 10 0,2
07.12.2018 23:00:00 8,3 2,6 6,0 37 20 54 29 W 1001,6 10 0,0
07.12.2018 22:00:00 8,2 2,6 6,0 37 20 50 27 W 1001,2 10 0,0
07.12.2018 21:00:00 8,5 3,3 6,3 41 22 58 31 W 1000,7 10 0,0
07.12.2018 20:00:00 7,6 4,8 5,7 21 11 54 29 W 999,7 10 0,2
07.12.2018 19:00:00 8,5 5,5 6,7 26 14 32 18 W 998,5 10 0,0
07.12.2018 18:00:00 7,9 5,7 6,7 16 9 47 25 W 997,7 10 0,0
07.12.2018 17:00:00 8,0 6,1 7,3 34 18 68 37 WNW 996,8 10 0,9
07.12.2018 16:00:00 10,9 10,3 10,5 35 19 58 31 SSW 994,9 7 2,6
07.12.2018 15:00:00 11,2 10,3 10,6 37 20 58 31 SSW 995,9 10 1,9
07.12.2018 14:00:00 11,4 10,4 11,0 41 22 58 31 SSW 997,5 4,5 0,0
07.12.2018 13:00:00 11,4 10,8 11,1 35 19 54 29 SSW 999,5 7 0,0
07.12.2018 12:00:00 11,9 10,6 11,3 39 21 61 33 SSW 1001,3 10 0,0
07.12.2018 11:00:00 11,8 10,6 11,2 37 20 58 31 SSW 1002,8 10 0,0
07.12.2018 10:00:00 11,8 10,8 11,2 34 18 58 31 SSW 1003,5 10 0,0
07.12.2018 09:00:00 11,9 10,9 11,2 41 22 54 29 SSW 1004,7 10 0,3
07.12.2018 08:00:00 11,6 11,1 11,1 35 19 50 27 SSW 1005,4 6 0,9
07.12.2018 07:00:00 11,6 11,2 11,2 31 17 47 25 SSW 1006,2 3,5 1,3
07.12.2018 06:00:00 11,7 11,2 11,2 29 16 40 21 SSW 1007,3 10 0,3
07.12.2018 05:00:00 11,6 11,3 11,3 28 15 47 25 SW 1008,3 5 0,3
07.12.2018 04:00:00 11,9 11,2 11,3 35 19 50 27 SW 1009,3 10 0,0
07.12.2018 03:00:00 11,7 11,4 11,3 34 18 47 25 SW 1010,1 2,5 0,3
07.12.2018 02:00:00 11,7 11,6 11,5 29 16 47 25 SW 1010,8 2,0 0,5
07.12.2018 01:00:00 11,9 11,6 11,5 34 18 50 27 SW 1011,4 2,5 0,3
07.12.2018 00:00:00 12,0 11,5 11,5 37 20 50 27 SW 1011,9 3,5 0,0
06.12.2018 23:00:00 12,3 11,3 11,5 39 21 54 29 SW 1012,1 8 0,1
06.12.2018 22:00:00 12,0 11,2 11,3 37 20 54 29 SW 1012,5 7 0,0
06.12.2018 21:00:00 11,9 10,6 10,9 35 19 47 25 SW 1012,9 10 0,0
06.12.2018 20:00:00 11,7 10,7 11,1 37 20 54 29 SW 1013,2 3,5 0,1
06.12.2018 19:00:00 11,9 10,9 11,3 31 17 47 25 SW 1013,2 10 0,0
06.12.2018 18:00:00 12,1 11,1 11,3 34 18 50 27 SW 1013,0 10 0,0
06.12.2018 17:00:00 11,7 11,0 11,0 31 17 43 23 SW 1013,5 10 0,0
06.12.2018 16:00:00 11,5 10,6 10,8 24 13 36 19 SW 1013,6 10 0,0
06.12.2018 15:00:00 11,6 10,0 10,9 24 13 36 19 SW 1013,8 10 0,0
06.12.2018 14:00:00 11,5 9,7 10,8 28 15 40 21 SW 1014,4 10 0,0
06.12.2018 13:00:00 11,8 10,3 11,4 26 14 40 21 SW 1014,2 10 0,0
06.12.2018 12:00:00 11,6 10,9 11,4 22 12 32 18 SW 1014,4 10 0,0
06.12.2018 11:00:00 11,6 10,7 10,9 18 10 29 16 WSW 1014,3 6 0,1
06.12.2018 10:00:00 11,5 10,6 10,8 18 10 29 16 SW 1014,0 10 0,0
06.12.2018 09:00:00 11,4 10,9 10,8 15 8 25 14 WSW 1013,0 8 0,0
06.12.2018 08:00:00 11,6 11,1 10,9 21 11 32 18 WSW 1012,9 8 0,0
06.12.2018 07:00:00 11,5 11,1 10,6 16 9 25 14 SW 1012,2 6 0,0
06.12.2018 06:00:00 10,5 10,3 10,1 15 8 22 12 SW 1011,9 5 0,0
06.12.2018 05:00:00 10,3 10,0 9,9 16 9 25 14 SSW 1011,4 3,2 0,7
06.12.2018 04:00:00 9,9 9,7 9,5 16 9 22 12 SSW 1011,3 3,4 0,0
06.12.2018 03:00:00 9,4 9,1 9,0 15 8 25 14 S 1011,1 2,8 0,2
06.12.2018 02:00:00 9,0 8,7 8,7 18 10 25 14 SSE 1010,8 4,0 0,2
06.12.2018 01:00:00 8,8 8,6 8,5 21 11 29 16 S 1011,2 4,0 0,0
06.12.2018 00:00:00 8,8 8,4 8,4 22 12 29 16 S 1011,6 8 0,0
05.12.2018 23:00:00 8,5 8,2 8,3 22 12 32 18 SSE 1011,9 5 0,0
05.12.2018 22:00:00 8,5 7,5 7,9 21 11 32 18 SSE 1012,3 10 0,0
05.12.2018 21:00:00 8,2 7,3 7,6 22 12 36 19 SSE 1012,6 10 0,0
05.12.2018 20:00:00 7,9 7,2 7,4 26 14 40 21 SSE 1013,0 9 0,1
05.12.2018 19:00:00 7,8 7,1 7,4 26 14 40 21 SSE 1013,9 7 0,0
05.12.2018 18:00:00 7,6 7,2 7,1 28 15 36 19 SSE 1014,5 7 0,3
05.12.2018 17:00:00 7,0 6,4 6,6 24 13 36 19 SE 1015,5 8 0,1
05.12.2018 16:00:00 6,4 5,9 6,2 29 16 36 19 SE 1016,1 3,8 0,3
05.12.2018 15:00:00 6,0 5,2 5,8 24 13 36 19 SE 1017,3 4,5 0,7
05.12.2018 14:00:00 6,1 4,1 5,8 21 11 32 18 SE 1018,5 8 0,0
05.12.2018 13:00:00 6,2 3,9 6,0 16 9 29 16 SE 1019,8 10 0,0
05.12.2018 12:00:00 5,8 3,8 5,6 18 10 25 14 SE 1020,5 10 0,0
05.12.2018 11:00:00 5,5 3,8 5,4 16 9 25 14 SE 1022,0 10 0,0
05.12.2018 10:00:00 4,8 3,1 4,5 16 9 25 14 SE 1022,5 10 0,0
05.12.2018 09:00:00 4,5 3,1 3,9 16 9 25 14 SE 1023,0 10 0,0
05.12.2018 08:00:00 4,3 3,0 3,6 15 8 22 12 SE 1023,4 10 0,0

tt = Température de l'air
td = dewpoint
tt 5cm = Température de l'air 5cm
ff = Vitesse du vent
fx = gusts
dd = Direction du vent
ppp = reduced air pressure
vv = visibility
rr = Quantités de précipitations

stations d'obs. à proximité